EW5549 Weather Reports


Display with metric or nautical units.
time (UTC)temp
F
wind
direction
speed
MPH
gust
MPH
rain 1hr
in
rain 24hr
in
rain mn
in
humidity
%
barometer
mb
20260906231723 66 345 3.0 3.0 0.00 0.00 0.00 67 1012.9
20260906231218 66 49 5.0 9.0 0.00 0.00 0.00 67 1013.2
20260906230717 66 23 5.0 7.0 0.00 0.00 0.00 66 1012.9
20260906230212 67 1 5.0 11.0 0.00 0.00 0.00 66 1013.0
20260906225711 67 18 5.0 7.0 0.00 0.00 0.00 65 1012.9
20260906225207 68 351 8.0 9.0 0.00 0.00 0.00 64 1013.2
20260906224702 68 2 8.0 10.0 0.00 0.00 0.00 63 1013.4
20260906224158 68 305 4.0 7.0 0.00 0.00 0.00 63 1013.5
20260906223654 69 350 6.0 9.0 0.00 0.00 0.00 63 1013.6
20260906223149 70 343 9.0 10.0 0.00 0.00 0.00 60 1013.4
20260906222647 71 2 5.0 7.0 0.00 0.00 0.00 58 1013.6
20260906222146 72 326 3.0 5.0 0.00 0.00 0.00 58 1013.5
20260906221644 74 359 10.0 13.0 0.00 0.00 0.00 53 1013.6
20260906221139 73 49 7.0 9.0 0.00 0.00 0.00 54 1013.5
20260906220635 73 321 7.0 10.0 0.00 0.00 0.00 54 1013.8
20260906220130 74 311 5.0 8.0 0.00 0.00 0.00 53 1013.8
20260906215628 75 325 8.0 11.0 0.00 0.00 0.00 51 1013.8
20260906215127 75 338 6.0 9.0 0.00 0.00 0.00 52 1013.8
20260906214626 75 284 5.0 9.0 0.00 0.00 0.00 50 1013.9
20260906214121 75 304 5.0 6.0 0.00 0.00 0.00 51 1014.5
20260906213620 75 308 6.0 7.0 0.00 0.00 0.00 51 1014.1
20260906213115 75 51 4.0 6.0 0.00 0.00 0.00 52 1014.1
20260906212612 75 26 4.0 6.0 0.00 0.00 0.00 49 1014.4
20260906212108 75 353 3.0 5.0 0.00 0.00 0.00 51 1014.7
20260906211607 74 12 5.0 7.0 0.00 0.00 0.00 50 1014.7
20260906211103 74 293 6.0 7.0 0.00 0.00 0.00 48 1014.5
20260906210558 74 5 4.0 5.0 0.00 0.00 0.00 48 1014.8
20260906210053 73 13 5.0 7.0 0.00 0.00 0.00 49 1014.8
20260906205549 74 15 6.0 8.0 0.00 0.00 0.00 50 1015.0
20260906205045 73 37 2.0 2.0 0.00 0.00 0.00 48 1014.9
20260906204544 73 341 4.0 6.0 0.00 0.00 0.00 50 1015.4
20260906204039 74 27 5.0 6.0 0.00 0.00 0.00 52 1015.1
20260906203538 73 45 3.0 3.0 0.00 0.00 0.00 54 1015.1
20260906203033 73 308 8.0 9.0 0.00 0.00 0.00 51 1015.3
20260906202530 73 67 1.0 2.0 0.00 0.00 0.00 53 1015.3
20260906202025 73 11 5.0 6.0 0.00 0.00 0.00 52 1015.4
20260906201525 73 29 1.0 2.0 0.00 0.00 0.00 53 1015.4
20260906201024 72 38 3.0 3.0 0.00 0.00 0.00 53 1015.6
20260906200520 72 40 3.0 3.0 0.00 0.00 0.00 54 1015.6
20260906200016 71 59 1.0 1.0 0.00 0.00 0.00 55 1015.8
20260906195511 71 40 1.0 1.0 0.00 0.00 0.00 55 1015.9
20260906195008 71 326 4.0 6.0 0.00 0.00 0.00 55 1016.1
20260906194503 70 32 1.0 1.0 0.00 0.00 0.00 57 1016.1
20260906193959 69 7 4.0 5.0 0.00 0.00 0.00 57 1016.1
20260906193458 70 275 5.0 5.0 0.00 0.00 0.00 56 1016.1
20260906192954 69 31 3.0 3.0 0.00 0.00 0.00 57 1016.3
20260906192449 69 292 3.0 3.0 0.00 0.00 0.00 57 1016.1
20260906191948 69 7 1.0 2.0 0.00 0.00 0.00 58 1016.1
20260906191443 68 352 4.0 6.0 0.00 0.00 0.00 59 1016.4
20260906190942 69 254 4.0 5.0 0.00 0.00 0.00 59 1016.5
20260906190441 68 13 2.0 2.0 0.00 0.00 0.00 59 1016.6
20260906185936 68 24 2.0 2.0 0.00 0.00 0.00 61 1016.6
20260906185436 68 291 2.0 2.0 0.00 0.00 0.00 59 1016.9
20260906184934 68 286 5.0 6.0 0.00 0.00 0.00 60 1016.7
20260906184430 69 336 6.0 7.0 0.00 0.00 0.00 59 1016.9
20260906183925 70 66 1.0 2.0 0.00 0.00 0.00 58 1017.0
20260906183421 69 41 5.0 6.0 0.00 0.00 0.00 57 1017.2
20260906182917 70 338 3.0 5.0 0.00 0.00 0.00 59 1017.0
20260906182412 69 48 1.0 1.0 0.00 0.00 0.00 59 1017.2
20260906181908 69 68 1.0 1.0 0.00 0.00 0.00 60 1017.5
20260906181403 67 52 3.0 3.0 0.00 0.00 0.00 61 1017.3
20260906180859 68 10 4.0 5.0 0.00 0.00 0.00 61 1017.4
20260906180354 67 268 4.0 6.0 0.00 0.00 0.00 63 1017.6
20260906175851 67 52 2.0 2.0 0.00 0.00 0.00 64 1017.6
20260906175346 68 54 3.0 3.0 0.00 0.00 0.00 61 1017.9
20260906174845 68 354 4.0 5.0 0.00 0.00 0.00 63 1017.9
20260906174344 67 37 2.0 2.0 0.00 0.00 0.00 61 1018.0
20260906173839 68 53 3.0 3.0 0.00 0.00 0.00 61 1018.2
20260906173335 67 25 2.0 2.0 0.00 0.00 0.00 63 1018.3
20260906172834 66 323 3.0 3.0 0.00 0.00 0.00 63 1018.5
20260906172331 67 281 3.0 3.0 0.00 0.00 0.00 62 1018.5
20260906171826 66 357 2.0 3.0 0.00 0.00 0.00 63 1018.5
20260906171321 67 44 2.0 2.0 0.00 0.00 0.00 63 1018.6
20260906170816 65 41 3.0 3.0 0.00 0.00 0.00 62 1018.4
20260906170312 66 49 1.0 2.0 0.00 0.00 0.00 64 1018.5
20260906165808 65 72 0.0 0.0 0.00 0.00 0.00 64 1018.8
20260906165308 65 20 2.0 2.0 0.00 0.00 0.00 66 1018.8
20260906164808 65 57 0.0 0.0 0.00 0.00 0.00 66 1018.7
20260906164302 64 30 3.0 3.0 0.00 0.00 0.00 68 1018.8
20260906163758 64 333 7.0 8.0 0.00 0.00 0.00 67 1019.1
20260906163254 63 9 2.0 2.0 0.00 0.00 0.00 69 1019.1
20260906162752 63 244 2.0 2.0 0.00 0.00 0.00 68 1019.2
20260906162251 62 42 2.0 2.0 0.00 0.00 0.00 71 1019.4
20260906161746 62 319 5.0 7.0 0.00 0.00 0.00 72 1019.4
20260906161245 62 321 4.0 5.0 0.00 0.00 0.00 72 1019.4
20260906160743 61 37 2.0 2.0 0.00 0.00 0.00 73 1019.4
20260906160244 60 28 1.0 2.0 0.00 0.00 0.00 75 1019.6
20260906155741 60 13 2.0 2.0 0.00 0.00 0.00 76 1019.7
20260906155236 60 7 1.0 2.0 0.00 0.00 0.00 76 1019.7
20260906154732 60 295 3.0 3.0 0.00 0.00 0.00 77 1019.9
20260906154227 59 301 5.0 5.0 0.00 0.00 0.00 78 1019.9
20260906153725 59 329 4.0 5.0 0.00 0.00 0.00 78 1019.8
20260906153220 59 292 5.0 6.0 0.00 0.00 0.00 78 1019.8
20260906152715 59 296 5.0 6.0 0.00 0.00 0.00 78 1020.1
20260906152209 59 270 3.0 3.0 0.00 0.00 0.00 79 1019.9
20260906151703 59 281 5.0 7.0 0.00 0.00 0.00 79 1020.2
20260906151200 59 293 3.0 3.0 0.00 0.00 0.00 79 1019.9
20260906150655 59 294 4.0 5.0 0.00 0.00 0.00 79 1020.2
20260906150150 59 298 4.0 5.0 0.00 0.00 0.00 80 1020.2
20260906145648 58 212 2.0 2.0 0.00 0.00 0.00 80 1020.4
20260906145143 58 26 1.0 1.0 0.00 0.00 0.00 81 1020.2
20260906144643 58 261 3.0 3.0 0.00 0.00 0.00 81 1020.3
20260906144138 58 257 2.0 2.0 0.00 0.00 0.00 81 1020.3
20260906143637 58 276 2.0 2.0 0.00 0.00 0.00 83 1020.3
20260906143135 57 280 3.0 3.0 0.00 0.00 0.00 83 1020.3
20260906142634 57 257 3.0 3.0 0.00 0.00 0.00 84 1020.5
20260906142129 57 255 2.0 2.0 0.00 0.00 0.00 84 1020.3
20260906141628 57 239 3.0 3.0 0.00 0.00 0.00 83 1020.5
20260906141124 57 251 3.0 3.0 0.00 0.00 0.00 83 1020.5
20260906140622 57 254 3.0 3.0 0.00 0.00 0.00 84 1020.7
20260906140118 56 254 3.0 3.0 0.00 0.00 0.00 84 1020.5
20260906135614 56 229 3.0 3.0 0.00 0.00 0.00 85 1020.7
20260906135111 56 223 3.0 3.0 0.00 0.00 0.00 84 1020.6
20260906134606 56 313 2.0 2.0 0.00 0.00 0.00 85 1020.7
20260906134101 57 37 0.0 0.0 0.00 0.00 0.00 84 1020.5
20260906133556 56 71 0.0 1.0 0.00 0.00 0.00 84 1020.7
20260906133051 56 48 0.0 0.0 0.00 0.00 0.00 85 1020.5
20260906132546 56 40 1.0 1.0 0.00 0.00 0.00 85 1020.9
20260906132042 56 36 1.0 1.0 0.00 0.00 0.00 84 1020.8
20260906131537 56 7 2.0 2.0 0.00 0.00 0.00 85 1021.1
20260906131033 56 340 2.0 2.0 0.00 0.00 0.00 85 1021.2
20260906130532 56 304 3.0 3.0 0.00 0.00 0.00 85 1021.3
20260906130027 56 285 4.0 5.0 0.00 0.00 0.00 85 1021.2
20260906125524 56 283 6.0 6.0 0.00 0.00 0.00 85 1020.9
20260906125019 56 283 3.0 3.0 0.00 0.00 0.00 85 1021.1
20260906124514 56 309 4.0 5.0 0.00 0.00 0.00 84 1020.7
20260906124009 57 297 3.0 3.0 0.00 0.00 0.00 84 1020.9
20260906123508 57 299 4.0 5.0 0.00 0.00 0.00 83 1020.9
20260906123003 57 319 4.0 5.0 0.00 0.00 0.00 83 1020.9
20260906122457 57 336 4.0 5.0 0.00 0.00 0.00 83 1020.8
20260906121954 57 13 5.0 6.0 0.00 0.00 0.00 83 1020.8
20260906121450 57 38 2.0 2.0 0.00 0.00 0.00 83 1020.8
20260906120946 57 314 3.0 3.0 0.00 0.00 0.00 83 1021.1
20260906120441 57 335 5.0 6.0 0.00 0.00 0.00 83 1020.7
20260906115937 57 350 3.0 3.0 0.00 0.00 0.00 83 1020.7
20260906115432 57 13 4.0 5.0 0.00 0.00 0.00 83 1020.8
20260906114927 57 315 3.0 5.0 0.00 0.00 0.00 82 1020.9
20260906114427 57 311 5.0 7.0 0.00 0.00 0.00 82 1021.3
20260906113923 57 297 4.0 5.0 0.00 0.00 0.00 82 1021.1
20260906113421 57 297 5.0 6.0 0.00 0.00 0.00 82 1021.3
20260906112917 57 293 7.0 8.0 0.00 0.00 0.00 82 1021.3
20260906112412 57 310 8.0 9.0 0.00 0.00 0.00 81 1020.9
20260906111908 58 284 8.0 8.0 0.00 0.00 0.00 81 1021.1
20260906111407 58 302 8.0 9.0 0.00 0.00 0.00 80 1021.2
20260906110903 58 290 8.0 9.0 0.00 0.00 0.00 79 1020.9
20260906110358 58 294 6.0 7.0 0.00 0.00 0.00 80 1020.9
20260906105857 57 293 6.0 7.0 0.00 0.00 0.00 80 1020.8
20260906105353 57 281 12.0 14.0 0.00 0.00 0.00 81 1020.5
20260906104848 57 297 11.0 13.0 0.00 0.00 0.00 81 1020.6
20260906104347 57 302 9.0 10.0 0.00 0.00 0.00 81 1020.5
20260906103846 57 295 7.0 8.0 0.00 0.00 0.00 81 1020.2
20260906103344 56 274 7.0 8.0 0.00 0.00 0.00 83 1020.3
20260906102840 57 281 8.0 9.0 0.00 0.00 0.00 82 1019.9
20260906102339 57 284 6.0 7.0 0.00 0.00 0.00 81 1020.1
20260906101834 56 268 9.0 9.0 0.00 0.00 0.00 81 1019.9
20260906101329 56 260 7.0 8.0 0.00 0.00 0.00 81 1019.7
20260906100825 56 271 7.0 8.0 0.00 0.00 0.00 82 1019.5
20260906100324 56 276 5.0 6.0 0.00 0.00 0.00 81 1019.4
20260906095819 56 267 8.0 9.0 0.00 0.00 0.00 80 1019.4
20260906095315 56 252 8.0 9.0 0.00 0.00 0.00 80 1019.2
20260906094814 57 253 10.0 11.0 0.00 0.00 0.00 80 1018.9
20260906094309 56 272 7.0 9.0 0.00 0.00 0.00 81 1018.6
20260906093806 57 267 4.0 6.0 0.00 0.00 0.00 80 1018.5
20260906093301 57 298 4.0 5.0 0.00 0.00 0.00 79 1018.5
20260906092755 57 313 4.0 5.0 0.00 0.00 0.00 80 1018.4
20260906092250 57 298 3.0 3.0 0.00 0.00 0.00 80 1018.5
20260906091746 57 346 3.0 3.0 0.00 0.00 0.00 79 1018.5
20260906091242 57 315 3.0 5.0 0.00 0.00 0.00 79 1018.5
20260906090738 58 262 5.0 6.0 0.00 0.00 0.00 79 1018.5
20260906090237 58 324 5.0 6.0 0.00 0.00 0.00 79 1018.8
20260906085736 57 287 5.0 6.0 0.00 0.00 0.00 79 1018.7
20260906085236 57 294 5.0 6.0 0.00 0.00 0.00 79 1018.9
20260906084731 57 308 4.0 5.0 0.00 0.00 0.00 80 1018.5
20260906084231 57 316 5.0 6.0 0.00 0.00 0.00 80 1018.8
20260906083725 57 321 6.0 7.0 0.00 0.00 0.00 79 1018.8
20260906083221 57 299 7.0 7.0 0.00 0.00 0.00 80 1018.7
20260906082716 57 304 5.0 6.0 0.00 0.00 0.00 80 1018.7
20260906082211 57 307 3.0 3.0 0.00 0.00 0.00 80 1018.6
20260906081707 57 300 4.0 5.0 0.00 0.00 0.00 80 1018.9
20260906081156 56 312 5.0 7.0 0.00 0.00 0.00 81 1019.1
20260906080653 56 297 5.0 6.0 0.00 0.00 0.00 82 1019.2
20260906080149 55 266 5.0 6.0 0.00 0.00 0.00 83 1018.9
20260906075648 56 266 6.0 7.0 0.00 0.00 0.00 84 1019.2
20260906075143 55 261 6.0 6.0 0.00 0.00 0.00 85 1019.2
20260906074638 55 252 3.0 3.0 0.00 0.00 0.00 85 1019.2
20260906074137 56 240 4.0 5.0 0.00 0.00 0.00 84 1019.1
20260906073632 56 357 2.0 2.0 0.00 0.00 0.00 84 1019.2
20260906073128 56 30 1.0 2.0 0.00 0.00 0.00 84 1019.4
20260906072622 56 36 1.0 1.0 0.00 0.00 0.00 84 1019.3
20260906072119 57 35 0.0 0.0 0.00 0.00 0.00 83 1019.5
20260906071615 57 11 1.0 1.0 0.00 0.00 0.00 83 1019.6
20260906071109 56 350 3.0 3.0 0.00 0.00 0.00 84 1019.4
20260906070606 57 30 3.0 3.0 0.00 0.00 0.00 83 1019.5
20260906070101 57 51 2.0 2.0 0.00 0.00 0.00 83 1019.8
20260906065600 56 5 1.0 2.0 0.00 0.00 0.00 83 1019.8
20260906065056 56 11 2.0 2.0 0.00 0.00 0.00 83 1019.7
20260906064552 57 48 1.0 1.0 0.00 0.00 0.00 83 1019.8
20260906064046 57 15 2.0 2.0 0.00 0.00 0.00 82 1019.9
20260906063542 57 22 2.0 2.0 0.00 0.00 0.00 82 1019.9
20260906063038 57 35 1.0 1.0 0.00 0.00 0.00 83 1019.9
20260906062533 57 40 2.0 3.0 0.00 0.00 0.00 83 1019.9
20260906062027 57 30 1.0 2.0 0.00 0.00 0.00 82 1020.3
20260906061523 57 27 3.0 5.0 0.00 0.00 0.00 82 1020.1
20260906061022 57 25 2.0 2.0 0.00 0.00 0.00 81 1020.1
20260906060519 57 32 2.0 2.0 0.00 0.00 0.00 81 1020.3
20260906060016 57 17 1.0 2.0 0.00 0.00 0.00 81 1020.3
20260906055511 57 13 2.0 2.0 0.00 0.00 0.00 80 1020.2
20260906055006 57 42 0.0 0.0 0.00 0.00 0.00 80 1020.4
20260906054501 57 42 1.0 3.0 0.00 0.00 0.00 80 1020.3
20260906053956 58 42 0.0 1.0 0.00 0.00 0.00 79 1020.3
20260906053453 58 14 3.0 3.0 0.00 0.00 0.00 78 1020.4
20260906052948 59 343 5.0 7.0 0.00 0.00 0.00 77 1020.2
20260906052444 59 11 4.0 6.0 0.00 0.00 0.00 76 1020.4
20260906051941 59 5 4.0 6.0 0.00 0.00 0.00 75 1020.3
20260906051436 59 30 0.0 0.0 0.00 0.00 0.00 76 1020.5
20260906050932 59 286 5.0 5.0 0.00 0.00 0.00 75 1020.6
20260906050431 60 2 2.0 2.0 0.00 0.00 0.00 74 1020.4
20260906045930 60 304 6.0 7.0 0.00 0.00 0.00 74 1020.3
20260906045429 60 299 9.0 9.0 0.00 0.00 0.00 74 1020.3
20260906044925 60 326 7.0 9.0 0.00 0.00 0.00 72 1020.4
20260906044420 60 313 5.0 6.0 0.00 0.00 0.00 70 1020.4
20260906043916 60 317 6.0 7.0 0.00 0.00 0.00 68 1020.4
20260906043412 61 338 3.0 3.0 0.00 0.00 0.00 67 1020.3
20260906042907 60 296 6.0 7.0 0.00 0.00 0.00 68 1020.2
20260906042406 61 315 8.0 10.0 0.00 0.00 0.00 67 1020.2
20260906041901 61 318 10.0 13.0 0.00 0.00 0.00 64 1020.1
20260906041356 61 321 7.0 9.0 0.00 0.00 0.00 65 1020.1
20260906040851 61 318 11.0 16.0 0.00 0.00 0.00 64 1020.2
20260906040346 62 314 11.0 13.0 0.00 0.00 0.00 63 1019.9
20260906035842 62 309 16.0 20.0 0.00 0.00 0.00 63 1019.7
20260906035337 62 334 10.0 11.0 0.00 0.00 0.00 61 1019.6
20260906034832 63 304 13.0 15.0 0.00 0.00 0.00 60 1019.7
20260906034327 63 295 11.0 11.0 0.00 0.00 0.00 59 1019.6
20260906033823 62 329 6.0 7.0 0.00 0.00 0.00 61 1019.5
20260906033322 64 260 9.0 10.0 0.00 0.00 0.00 60 1019.1
20260906032818 64 311 10.0 11.0 0.00 0.00 0.00 57 1019.2
20260906032314 64 284 9.0 10.0 0.00 0.00 0.00 57 1018.9
20260906031809 64 328 4.0 5.0 0.00 0.00 0.00 59 1019.1
20260906031305 64 270 7.0 8.0 0.00 0.00 0.00 58 1018.8
20260906030804 64 283 9.0 10.0 0.00 0.00 0.00 57 1018.6
20260906030300 65 290 7.0 8.0 0.00 0.00 0.00 55 1018.4
20260906025759 64 328 4.0 5.0 0.00 0.00 0.00 57 1018.3
20260906025253 64 297 8.0 9.0 0.00 0.00 0.00 57 1018.3
20260906024752 66 357 5.0 7.0 0.00 0.00 0.00 55 1018.2
20260906024252 66 299 14.0 16.0 0.00 0.00 0.00 54 1017.8
20260906023747 66 335 8.0 9.0 0.00 0.00 0.00 54 1017.9
20260906023243 66 292 6.0 8.0 0.00 0.00 0.00 53 1017.5
20260906022738 66 298 5.0 7.0 0.00 0.00 0.00 53 1017.6
20260906022233 65 308 12.0 15.0 0.00 0.00 0.00 53 1017.8
20260906021729 66 359 4.0 6.0 0.00 0.00 0.00 55 1017.6
20260906021228 68 348 5.0 6.0 0.00 0.00 0.00 50 1017.3
20260906020723 67 298 12.0 16.0 0.00 0.00 0.00 50 1017.3
20260906020217 67 287 10.0 11.0 0.00 0.00 0.00 50 1017.0
20260906015712 66 297 8.0 9.0 0.00 0.00 0.00 52 1017.0
20260906015211 67 289 10.0 11.0 0.00 0.00 0.00 52 1017.2
20260906014711 67 287 11.0 13.0 0.00 0.00 0.00 52 1016.9
20260906014207 66 272 8.0 9.0 0.00 0.00 0.00 55 1016.7
20260906013702 66 272 7.0 8.0 0.00 0.00 0.00 55 1016.9
20260906013157 66 274 6.0 7.0 0.00 0.00 0.00 54 1016.7
20260906012657 66 287 6.0 6.0 0.00 0.00 0.00 56 1016.7
20260906012151 67 276 5.0 6.0 0.00 0.00 0.00 56 1016.7
20260906011648 67 288 7.0 8.0 0.00 0.00 0.00 53 1016.6
20260906011142 67 309 4.0 5.0 0.00 0.00 0.00 56 1016.5
20260906010637 68 327 5.0 6.0 0.00 0.00 0.00 55 1016.5
20260906010134 68 310 5.0 6.0 0.00 0.00 0.00 53 1016.6
20260906005633 68 295 6.0 7.0 0.00 0.00 0.00 52 1016.6
20260906005127 69 300 7.0 9.0 0.00 0.00 0.00 53 1016.5
20260906004626 70 349 8.0 9.0 0.00 0.00 0.00 49 1016.6
20260906004121 71 327 4.0 6.0 0.00 0.00 0.00 50 1016.5
20260906003616 72 358 7.0 9.0 0.00 0.00 0.00 49 1016.6
20260906003112 72 325 5.0 6.0 0.00 0.00 0.00 50 1016.7
20260906002607 72 340 6.0 9.0 0.00 0.00 0.00 50 1016.5
20260906002101 72 21 5.0 7.0 0.00 0.00 0.00 49 1016.6
20260906001556 72 339 5.0 7.0 0.00 0.00 0.00 49 1016.6
20260906001051 73 336 6.0 8.0 0.00 0.00 0.00 49 1016.6
20260906000547 73 351 6.0 9.0 0.00 0.00 0.00 49 1016.8
20260906000042 73 308 6.0 7.0 0.00 0.00 0.00 49 1016.6
20260905235536 73 349 5.0 7.0 0.00 0.00 0.00 49 1016.7
20260905235031 73 344 4.0 7.0 0.00 0.00 0.00 50 1016.7
20260905234527 73 339 6.0 8.0 0.00 0.00 0.00 48 1016.5
20260905234027 74 0 5.0 7.0 0.00 0.00 0.00 49 1016.6
20260905233521 74 32 3.0 3.0 0.00 0.00 0.00 47 1016.6
20260905233021 75 22 3.0 3.0 0.00 0.00 0.00 47 1016.6
20260905232517 75 321 4.0 5.0 0.00 0.00 0.00 48 1016.7
20260905232012 75 9 2.0 2.0 0.00 0.00 0.00 44 1016.8